Torna al catalogo

COSMOS 397 DEB

AttivoLEO
NORAD 5098·DEBRIS·🇷🇺 Russia

Lanciato Feb 25, 1971 da Baikonur Cosmodrome

Loading…

Prossimi Passaggi (prossime 24 ore)

TLE

AggiornatoSource: Space-Track

Epoca: Sep 14, 2026, 10:58 UTC

1 05098U 71015X   26257.45694665  .00000678  00000-0  24719-3 0  9990
2 05098  65.8314  59.9687 0716149 284.2402  68.0178 13.48046898663090

Traccia COSMOS 397 DEB in tempo reale con AllMySat

Download on the App Store